{"data":{"norad_id":68076,"epoch":"2026-09-19T19:36:21.280608Z","epoch_age_seconds":114419,"freshness":"FRESH","line1":"1 68076U 26042H   26262.81691297  .00013015  00000+0  39547-3 0  9992","line2":"2 68076  53.1586 353.0040 0001015  49.3484 310.7607 15.34415285 32086","mean_motion":15.34415285,"eccentricity":0.0001015,"inclination_deg":53.1586,"raan_deg":353.004,"arg_perigee_deg":49.3484,"mean_anomaly_deg":310.7607,"bstar":0.00039547,"rev_number":3208,"period_min":93.846823221655,"perigee_km":461.96346966981,"apogee_km":463.35215101631,"semimajor_km":6840.7948103431,"source":"CELESTRAK","updated_at":"2026-09-20T09:00:43.778532Z"}}